| time (UTC) | temp F | wind direction | speed knots | gust knots | rain 1hr in | rain 24hr in | rain mn in | humidity % | barometer mb |
| 20260505152551 | 78 | 242 | 1.7 | 5.2 | 0.00 | 0.00 | 0.00 | 50 | 1012.9 |
| 20260505152047 | 77 | 238 | 1.7 | 3.5 | 0.00 | 0.00 | 0.00 | 50 | 1012.9 |
| 20260505151548 | 77 | 245 | 0.9 | 3.5 | 0.00 | 0.00 | 0.00 | 50 | 1013.2 |
| 20260505151046 | 77 | 149 | 0.9 | 2.6 | 0.00 | 0.00 | 0.00 | 51 | 1012.9 |
| 20260505150541 | 77 | 257 | 0.9 | 2.6 | 0.00 | 0.00 | 0.00 | 51 | 1012.9 |
| 20260505140507 | 72 | 222 | 0.9 | 2.6 | 0.00 | 0.00 | 0.00 | 56 | 1013.2 |
| 20260505124920 | 66 | 178 | 0.9 | 3.5 | 0.00 | 0.00 | 0.00 | 63 | 1013.9 |
| 20260505124417 | 65 | 241 | 0.9 | 4.3 | 0.00 | 0.00 | 0.00 | 62 | 1013.6 |
| 20260505123913 | 65 | 185 | 0.9 | 4.3 | 0.00 | 0.00 | 0.00 | 63 | 1013.6 |
| 20260505123410 | 65 | 227 | 0.9 | 4.3 | 0.00 | 0.00 | 0.00 | 63 | 1013.6 |
| 20260505122906 | 64 | 225 | 1.7 | 4.3 | 0.00 | 0.00 | 0.00 | 64 | 1013.6 |
| 20260505122403 | 64 | 233 | 1.7 | 4.3 | 0.00 | 0.00 | 0.00 | 63 | 1013.6 |
| 20260505121900 | 64 | 234 | 1.7 | 2.6 | 0.00 | 0.00 | 0.00 | 65 | 1013.6 |
| 20260505121357 | 63 | 227 | 0.9 | 2.6 | 0.00 | 0.00 | 0.00 | 65 | 1013.6 |
| 20260505120853 | 62 | 239 | 0.0 | 2.6 | 0.00 | 0.00 | 0.00 | 67 | 1013.6 |
| 20260505120349 | 62 | 224 | 0.0 | 0.0 | 0.00 | 0.00 | 0.00 | 68 | 1013.6 |
| 20260505115848 | 62 | 225 | 0.0 | 0.0 | 0.00 | 0.00 | 0.00 | 68 | 1013.2 |
| 20260505115345 | 61 | 225 | 0.0 | 0.0 | 0.00 | 0.00 | 0.00 | 69 | 1013.2 |
| 20260505114843 | 61 | 224 | 0.0 | 0.0 | 0.00 | 0.00 | 0.00 | 70 | 1013.2 |
| 20260505114339 | 61 | 224 | 0.0 | 0.0 | 0.00 | 0.00 | 0.00 | 70 | 1013.6 |
| 20260505113836 | 60 | 223 | 0.0 | 0.0 | 0.00 | 0.00 | 0.00 | 70 | 1013.2 |
| 20260505113332 | 60 | 223 | 0.0 | 0.0 | 0.00 | 0.00 | 0.00 | 70 | 1013.2 |
| 20260505112828 | 60 | 223 | 0.0 | 0.9 | 0.00 | 0.00 | 0.00 | 71 | 1013.2 |
| 20260505112326 | 60 | 223 | 0.0 | 0.9 | 0.00 | 0.00 | 0.00 | 71 | 1013.2 |
| 20260505111821 | 60 | 223 | 0.0 | 0.9 | 0.00 | 0.00 | 0.00 | 70 | 1013.2 |
| 20260505111317 | 60 | 223 | 0.0 | 0.9 | 0.00 | 0.00 | 0.00 | 71 | 1012.9 |
| 20260505110813 | 59 | 221 | 0.0 | 0.0 | 0.00 | 0.00 | 0.00 | 71 | 1012.9 |
| 20260505110311 | 59 | 221 | 0.0 | 0.0 | 0.00 | 0.00 | 0.00 | 72 | 1012.9 |
| 20260505101745 | 58 | 219 | 0.0 | 0.0 | 0.00 | 0.00 | 0.00 | 73 | 1012.6 |
| 20260505101241 | 58 | 219 | 0.0 | 0.0 | 0.00 | 0.00 | 0.00 | 73 | 1012.6 |
| 20260505100737 | 57 | 219 | 0.0 | 0.0 | 0.00 | 0.00 | 0.00 | 73 | 1012.6 |
| 20260505100234 | 57 | 219 | 0.0 | 0.0 | 0.00 | 0.00 | 0.00 | 73 | 1012.6 |
| 20260505095729 | 57 | 219 | 0.0 | 0.0 | 0.00 | 0.00 | 0.00 | 73 | 1012.6 |
| 20260505095228 | 57 | 219 | 0.0 | 0.0 | 0.00 | 0.00 | 0.00 | 73 | 1012.2 |
| 20260505094723 | 57 | 219 | 0.0 | 0.9 | 0.00 | 0.00 | 0.00 | 73 | 1012.2 |
| 20260505094220 | 57 | 219 | 0.0 | 0.9 | 0.00 | 0.00 | 0.00 | 73 | 1012.2 |
| 20260505093716 | 58 | 219 | 0.0 | 0.9 | 0.00 | 0.00 | 0.00 | 73 | 1012.2 |
| 20260505093214 | 57 | 219 | 0.0 | 0.9 | 0.00 | 0.00 | 0.00 | 73 | 1012.2 |
| 20260505092710 | 57 | 219 | 0.0 | 1.7 | 0.00 | 0.00 | 0.00 | 73 | 1012.2 |
| 20260505092209 | 57 | 219 | 0.0 | 1.7 | 0.00 | 0.00 | 0.00 | 73 | 1012.2 |
| 20260505091705 | 57 | 219 | 0.0 | 1.7 | 0.00 | 0.00 | 0.00 | 74 | 1012.2 |
| 20260505091204 | 57 | 219 | 0.0 | 1.7 | 0.00 | 0.00 | 0.00 | 74 | 1012.2 |
| 20260505090701 | 56 | 132 | 0.0 | 1.7 | 0.00 | 0.00 | 0.00 | 75 | 1012.2 |
| 20260505090159 | 56 | 132 | 0.0 | 1.7 | 0.00 | 0.00 | 0.00 | 76 | 1012.2 |
| 20260505085656 | 55 | 131 | 0.0 | 1.7 | 0.00 | 0.00 | 0.00 | 77 | 1012.2 |
| 20260505085154 | 55 | 131 | 0.0 | 1.7 | 0.00 | 0.00 | 0.00 | 77 | 1012.2 |
| 20260505084651 | 54 | 131 | 0.0 | 0.9 | 0.00 | 0.00 | 0.00 | 78 | 1012.2 |
| 20260505084150 | 54 | 131 | 0.0 | 0.9 | 0.00 | 0.00 | 0.00 | 78 | 1012.2 |
| 20260505083647 | 54 | 131 | 0.0 | 0.0 | 0.00 | 0.00 | 0.00 | 78 | 1012.2 |
| 20260505083143 | 54 | 131 | 0.0 | 0.0 | 0.00 | 0.00 | 0.00 | 79 | 1012.2 |
| 20260505082639 | 54 | 131 | 0.0 | 0.0 | 0.00 | 0.00 | 0.00 | 79 | 1012.2 |
| 20260505082137 | 54 | 131 | 0.0 | 0.0 | 0.00 | 0.00 | 0.00 | 79 | 1012.2 |
| 20260505081632 | 54 | 131 | 0.0 | 0.0 | 0.00 | 0.00 | 0.00 | 79 | 1012.2 |
| 20260505081130 | 54 | 131 | 0.0 | 0.0 | 0.00 | 0.00 | 0.00 | 79 | 1012.2 |
| 20260505080627 | 54 | 131 | 0.0 | 0.0 | 0.00 | 0.00 | 0.00 | 79 | 1012.2 |
| 20260505080123 | 54 | 131 | 0.0 | 0.0 | 0.00 | 0.00 | 0.00 | 79 | 1012.2 |
| 20260505075619 | 54 | 131 | 0.0 | 0.0 | 0.00 | 0.00 | 0.00 | 79 | 1012.2 |
| 20260505075116 | 54 | 131 | 0.0 | 0.0 | 0.00 | 0.00 | 0.00 | 79 | 1012.2 |
| 20260505074613 | 54 | 131 | 0.0 | 0.0 | 0.00 | 0.00 | 0.00 | 79 | 1012.2 |
| 20260505074110 | 54 | 131 | 0.0 | 0.0 | 0.00 | 0.00 | 0.00 | 78 | 1012.2 |
| 20260505073607 | 55 | 131 | 0.0 | 0.0 | 0.00 | 0.00 | 0.00 | 78 | 1012.2 |
| 20260505073106 | 55 | 131 | 0.0 | 0.0 | 0.00 | 0.00 | 0.00 | 78 | 1011.9 |
| 20260505072601 | 55 | 131 | 0.0 | 0.0 | 0.00 | 0.00 | 0.00 | 78 | 1011.9 |
| 20260505072058 | 55 | 131 | 0.0 | 0.0 | 0.00 | 0.00 | 0.00 | 78 | 1011.9 |
| 20260505071553 | 55 | 131 | 0.0 | 0.0 | 0.00 | 0.00 | 0.00 | 78 | 1011.9 |
| 20260505071051 | 55 | 131 | 0.0 | 0.0 | 0.00 | 0.00 | 0.00 | 77 | 1011.9 |
| 20260505070548 | 55 | 131 | 0.0 | 0.0 | 0.00 | 0.00 | 0.00 | 77 | 1011.9 |
| 20260505070044 | 55 | 131 | 0.0 | 0.0 | 0.00 | 0.00 | 0.00 | 76 | 1011.9 |
| 20260505065540 | 55 | 131 | 0.0 | 0.0 | 0.00 | 0.00 | 0.00 | 76 | 1011.9 |
| 20260505065037 | 56 | 131 | 0.0 | 0.0 | 0.00 | 0.00 | 0.00 | 76 | 1011.9 |
| 20260505064534 | 56 | 131 | 0.0 | 0.0 | 0.00 | 0.00 | 0.00 | 76 | 1011.5 |
| 20260505064033 | 56 | 131 | 0.0 | 0.0 | 0.00 | 0.00 | 0.00 | 76 | 1011.9 |
| 20260505063529 | 56 | 131 | 0.0 | 0.0 | 0.00 | 0.00 | 0.00 | 76 | 1011.9 |
| 20260505063025 | 56 | 131 | 0.0 | 0.0 | 0.00 | 0.00 | 0.00 | 76 | 1011.5 |
| 20260505062522 | 56 | 131 | 0.0 | 0.0 | 0.00 | 0.00 | 0.00 | 76 | 1011.9 |
| 20260505062020 | 56 | 131 | 0.0 | 0.0 | 0.00 | 0.00 | 0.00 | 76 | 1011.9 |
| 20260505061517 | 56 | 131 | 0.0 | 0.0 | 0.00 | 0.00 | 0.00 | 75 | 1011.9 |
| 20260505061015 | 56 | 131 | 0.0 | 0.0 | 0.00 | 0.00 | 0.00 | 75 | 1011.9 |
| 20260505060512 | 56 | 131 | 0.0 | 0.0 | 0.00 | 0.00 | 0.00 | 75 | 1011.9 |
| 20260505060008 | 56 | 131 | 0.0 | 0.0 | 0.00 | 0.00 | 0.00 | 75 | 1011.9 |
| 20260505055503 | 56 | 131 | 0.0 | 0.0 | 0.00 | 0.00 | 0.00 | 75 | 1011.9 |
| 20260505055000 | 57 | 131 | 0.0 | 0.0 | 0.00 | 0.00 | 0.00 | 75 | 1011.9 |
| 20260505054458 | 57 | 131 | 0.0 | 0.0 | 0.00 | 0.00 | 0.00 | 75 | 1011.9 |
| 20260505053956 | 57 | 131 | 0.0 | 0.0 | 0.00 | 0.00 | 0.00 | 75 | 1011.9 |
| 20260505053453 | 57 | 131 | 0.0 | 0.0 | 0.00 | 0.00 | 0.00 | 74 | 1012.2 |
| 20260505052949 | 56 | 131 | 0.0 | 0.0 | 0.00 | 0.00 | 0.00 | 74 | 1012.2 |
| 20260505052447 | 56 | 131 | 0.0 | 0.0 | 0.00 | 0.00 | 0.00 | 74 | 1011.9 |
| 20260505051943 | 56 | 131 | 0.0 | 0.0 | 0.00 | 0.00 | 0.00 | 74 | 1011.9 |
| 20260505051440 | 56 | 131 | 0.0 | 0.0 | 0.00 | 0.00 | 0.00 | 74 | 1012.2 |
| 20260505050938 | 56 | 131 | 0.0 | 0.0 | 0.00 | 0.00 | 0.00 | 74 | 1012.2 |
| 20260505050437 | 57 | 131 | 0.0 | 0.0 | 0.00 | 0.00 | 0.00 | 74 | 1012.2 |
| 20260505041404 | 58 | 131 | 0.0 | 0.0 | 0.00 | 0.00 | 0.00 | 72 | 1011.9 |
| 20260505040901 | 58 | 132 | 0.0 | 0.0 | 0.00 | 0.00 | 0.00 | 72 | 1011.9 |
| 20260505040359 | 58 | 132 | 0.0 | 0.0 | 0.00 | 0.00 | 0.00 | 71 | 1011.5 |
| 20260505035855 | 58 | 132 | 0.0 | 0.0 | 0.00 | 0.00 | 0.00 | 71 | 1011.9 |
| 20260505035351 | 58 | 132 | 0.0 | 0.0 | 0.00 | 0.00 | 0.00 | 71 | 1011.5 |
| 20260505034849 | 59 | 132 | 0.0 | 0.0 | 0.00 | 0.00 | 0.00 | 71 | 1011.9 |
| 20260505034345 | 59 | 132 | 0.0 | 0.0 | 0.00 | 0.00 | 0.00 | 71 | 1011.9 |
| 20260505033842 | 59 | 132 | 0.0 | 0.0 | 0.00 | 0.00 | 0.00 | 71 | 1011.9 |
| 20260505033339 | 59 | 132 | 0.0 | 0.0 | 0.00 | 0.00 | 0.00 | 70 | 1011.9 |
| 20260505032837 | 59 | 132 | 0.0 | 0.0 | 0.00 | 0.00 | 0.00 | 70 | 1011.9 |
| 20260505032333 | 59 | 132 | 0.0 | 0.0 | 0.00 | 0.00 | 0.00 | 70 | 1011.5 |
| 20260505031831 | 59 | 132 | 0.0 | 0.0 | 0.00 | 0.00 | 0.00 | 69 | 1011.5 |
| 20260505031327 | 59 | 132 | 0.0 | 0.0 | 0.00 | 0.00 | 0.00 | 69 | 1011.5 |
| 20260505030824 | 60 | 132 | 0.0 | 0.0 | 0.00 | 0.00 | 0.00 | 69 | 1011.5 |
| 20260505030320 | 60 | 132 | 0.0 | 0.0 | 0.00 | 0.00 | 0.00 | 68 | 1011.9 |
| 20260505025816 | 60 | 132 | 0.0 | 0.0 | 0.00 | 0.00 | 0.00 | 68 | 1011.5 |
| 20260505025314 | 60 | 132 | 0.0 | 0.0 | 0.00 | 0.00 | 0.00 | 68 | 1011.9 |
| 20260505024812 | 60 | 132 | 0.0 | 0.0 | 0.00 | 0.00 | 0.00 | 67 | 1011.9 |
| 20260505024309 | 61 | 132 | 0.0 | 0.0 | 0.00 | 0.00 | 0.00 | 67 | 1011.9 |
| 20260505023806 | 61 | 132 | 0.0 | 0.0 | 0.00 | 0.00 | 0.00 | 67 | 1011.9 |
| 20260505023303 | 61 | 132 | 0.0 | 0.0 | 0.00 | 0.00 | 0.00 | 65 | 1011.9 |
| 20260505022800 | 61 | 132 | 0.0 | 0.0 | 0.00 | 0.00 | 0.00 | 65 | 1011.5 |
| 20260505022258 | 62 | 132 | 0.0 | 0.0 | 0.00 | 0.00 | 0.00 | 64 | 1011.9 |
| 20260505021754 | 62 | 132 | 0.0 | 0.0 | 0.00 | 0.00 | 0.00 | 64 | 1011.5 |
| 20260505021251 | 62 | 132 | 0.0 | 0.0 | 0.00 | 0.00 | 0.00 | 64 | 1011.9 |
| 20260505020747 | 63 | 132 | 0.0 | 0.0 | 0.00 | 0.00 | 0.00 | 63 | 1011.9 |
| 20260505020242 | 63 | 132 | 0.0 | 0.0 | 0.00 | 0.00 | 0.00 | 61 | 1011.5 |
| 20260505015740 | 63 | 132 | 0.0 | 0.0 | 0.00 | 0.00 | 0.00 | 60 | 1011.5 |
| 20260505015237 | 63 | 132 | 0.0 | 0.9 | 0.00 | 0.00 | 0.00 | 60 | 1011.5 |
| 20260505014734 | 64 | 132 | 0.0 | 0.9 | 0.00 | 0.00 | 0.00 | 60 | 1011.5 |
| 20260505014231 | 64 | 132 | 0.0 | 0.9 | 0.00 | 0.00 | 0.00 | 60 | 1011.5 |
| 20260505013727 | 64 | 132 | 0.0 | 0.9 | 0.00 | 0.00 | 0.00 | 59 | 1011.5 |
| 20260505013225 | 65 | 132 | 0.0 | 0.9 | 0.00 | 0.00 | 0.00 | 58 | 1011.2 |
| 20260505012723 | 65 | 132 | 0.0 | 0.0 | 0.00 | 0.00 | 0.00 | 57 | 1011.5 |
| 20260505012220 | 65 | 132 | 0.0 | 0.9 | 0.00 | 0.00 | 0.00 | 57 | 1011.5 |
| 20260505011715 | 66 | 132 | 0.0 | 0.9 | 0.00 | 0.00 | 0.00 | 56 | 1011.5 |
| 20260505011213 | 66 | 132 | 0.0 | 1.7 | 0.00 | 0.00 | 0.00 | 55 | 1011.5 |
| 20260505010708 | 66 | 132 | 0.0 | 1.7 | 0.00 | 0.00 | 0.00 | 55 | 1011.5 |
| 20260505010205 | 66 | 132 | 0.0 | 1.7 | 0.00 | 0.00 | 0.00 | 54 | 1011.2 |
| 20260505005701 | 67 | 132 | 0.0 | 1.7 | 0.00 | 0.00 | 0.00 | 54 | 1011.2 |
| 20260505005159 | 67 | 172 | 0.0 | 0.9 | 0.00 | 0.00 | 0.00 | 54 | 1011.5 |
| 20260505004655 | 67 | 172 | 0.0 | 1.7 | 0.00 | 0.00 | 0.00 | 53 | 1011.2 |
| 20260505004152 | 68 | 172 | 0.0 | 1.7 | 0.00 | 0.00 | 0.00 | 53 | 1011.2 |
| 20260505003649 | 68 | 173 | 0.0 | 1.7 | 0.00 | 0.00 | 0.00 | 53 | 1011.2 |
| 20260505003147 | 68 | 173 | 0.0 | 3.5 | 0.00 | 0.00 | 0.00 | 52 | 1011.2 |
| 20260505002643 | 68 | 173 | 0.0 | 3.5 | 0.00 | 0.00 | 0.00 | 52 | 1011.2 |
| 20260505002141 | 68 | 173 | 0.0 | 4.3 | 0.00 | 0.00 | 0.00 | 51 | 1011.2 |
| 20260505001638 | 69 | 174 | 0.0 | 4.3 | 0.00 | 0.00 | 0.00 | 51 | 1011.2 |
| 20260505001135 | 69 | 147 | 0.9 | 3.5 | 0.00 | 0.00 | 0.00 | 50 | 1010.9 |
| 20260505000633 | 69 | 154 | 0.9 | 3.5 | 0.00 | 0.00 | 0.00 | 50 | 1010.9 |
| 20260505000131 | 69 | 155 | 0.9 | 3.5 | 0.00 | 0.00 | 0.00 | 49 | 1010.9 |
| 20260504235626 | 70 | 161 | 0.9 | 5.2 | 0.00 | 0.00 | 0.00 | 49 | 1010.9 |
| 20260504235123 | 70 | 151 | 0.9 | 5.2 | 0.00 | 0.00 | 0.00 | 48 | 1010.9 |
| 20260504234620 | 70 | 170 | 0.0 | 2.6 | 0.00 | 0.00 | 0.00 | 47 | 1010.9 |
| 20260504234118 | 71 | 115 | 0.0 | 5.2 | 0.00 | 0.00 | 0.00 | 47 | 1010.9 |
| 20260504233613 | 71 | 115 | 0.0 | 5.2 | 0.00 | 0.00 | 0.00 | 47 | 1010.9 |
| 20260504233109 | 71 | 115 | 0.9 | 5.2 | 0.00 | 0.00 | 0.00 | 46 | 1010.9 |
| 20260504232607 | 72 | 152 | 0.9 | 7.0 | 0.00 | 0.00 | 0.00 | 46 | 1010.9 |
| 20260504232104 | 72 | 166 | 0.9 | 7.0 | 0.00 | 0.00 | 0.00 | 45 | 1010.9 |
| 20260504231600 | 73 | 221 | 0.9 | 7.0 | 0.00 | 0.00 | 0.00 | 45 | 1010.9 |
| 20260504231056 | 73 | 153 | 0.9 | 4.3 | 0.00 | 0.00 | 0.00 | 45 | 1010.9 |
| 20260504230553 | 73 | 171 | 0.9 | 5.2 | 0.00 | 0.00 | 0.00 | 44 | 1010.9 |
| 20260504230052 | 74 | 153 | 0.9 | 5.2 | 0.00 | 0.00 | 0.00 | 43 | 1010.9 |
| 20260504225549 | 74 | 335 | 0.9 | 4.3 | 0.00 | 0.00 | 0.00 | 43 | 1010.9 |
| 20260504225046 | 75 | 159 | 0.9 | 4.3 | 0.00 | 0.00 | 0.00 | 41 | 1010.9 |
| 20260504224542 | 75 | 178 | 0.9 | 7.0 | 0.00 | 0.00 | 0.00 | 39 | 1010.9 |
| 20260504224040 | 75 | 220 | 0.9 | 7.0 | 0.00 | 0.00 | 0.00 | 39 | 1010.9 |
| 20260504223536 | 75 | 249 | 0.9 | 7.0 | 0.00 | 0.00 | 0.00 | 39 | 1010.9 |
| 20260504223032 | 75 | 209 | 1.7 | 7.0 | 0.00 | 0.00 | 0.00 | 39 | 1010.5 |
| 20260504222529 | 75 | 260 | 1.7 | 7.0 | 0.00 | 0.00 | 0.00 | 38 | 1010.5 |
| 20260504222027 | 76 | 242 | 0.9 | 7.8 | 0.00 | 0.00 | 0.00 | 38 | 1010.5 |
| 20260504221524 | 76 | 171 | 0.0 | 7.8 | 0.00 | 0.00 | 0.00 | 39 | 1010.5 |
| 20260504221020 | 76 | 247 | 0.0 | 6.1 | 0.00 | 0.00 | 0.00 | 39 | 1010.5 |
| 20260504220517 | 76 | 207 | 0.9 | 6.1 | 0.00 | 0.00 | 0.00 | 39 | 1010.5 |
| 20260504220014 | 76 | 216 | 0.9 | 6.1 | 0.00 | 0.00 | 0.00 | 37 | 1010.9 |
| 20260504215510 | 76 | 202 | 0.9 | 6.1 | 0.00 | 0.00 | 0.00 | 39 | 1010.9 |
| 20260504215008 | 76 | 241 | 1.7 | 4.3 | 0.00 | 0.00 | 0.00 | 38 | 1010.9 |
| 20260504214504 | 76 | 184 | 1.7 | 4.3 | 0.00 | 0.00 | 0.00 | 37 | 1010.9 |
| 20260504214000 | 76 | 232 | 0.9 | 3.5 | 0.00 | 0.00 | 0.00 | 39 | 1010.9 |
| 20260504213456 | 76 | 306 | 0.9 | 3.5 | 0.00 | 0.00 | 0.00 | 38 | 1010.9 |
| 20260504212954 | 76 | 186 | 0.9 | 9.6 | 0.00 | 0.00 | 0.00 | 39 | 1010.9 |
| 20260504212449 | 76 | 215 | 0.9 | 9.6 | 0.00 | 0.00 | 0.00 | 38 | 1010.9 |
| 20260504211948 | 76 | 233 | 1.7 | 9.6 | 0.00 | 0.00 | 0.00 | 38 | 1010.9 |
| 20260504211443 | 76 | 220 | 1.7 | 9.6 | 0.00 | 0.00 | 0.00 | 38 | 1010.9 |
| 20260504210941 | 76 | 175 | 0.9 | 4.3 | 0.00 | 0.00 | 0.00 | 38 | 1010.9 |
| 20260504210438 | 77 | 244 | 1.7 | 7.0 | 0.00 | 0.00 | 0.00 | 38 | 1010.9 |
| 20260504205935 | 77 | 111 | 0.9 | 7.0 | 0.00 | 0.00 | 0.00 | 38 | 1010.9 |
| 20260504205432 | 77 | 225 | 1.7 | 7.0 | 0.00 | 0.00 | 0.00 | 39 | 1010.9 |
| 20260504204931 | 77 | 192 | 2.6 | 8.7 | 0.00 | 0.00 | 0.00 | 37 | 1010.9 |
| 20260504204429 | 78 | 191 | 1.7 | 8.7 | 0.00 | 0.00 | 0.00 | 36 | 1010.9 |
| 20260504203928 | 78 | 163 | 1.7 | 5.2 | 0.00 | 0.00 | 0.00 | 36 | 1011.2 |
| 20260504203425 | 78 | 75 | 1.7 | 6.1 | 0.00 | 0.00 | 0.00 | 36 | 1011.2 |
| 20260504202920 | 78 | 180 | 0.9 | 6.1 | 0.00 | 0.00 | 0.00 | 36 | 1011.2 |
| 20260504202417 | 78 | 152 | 0.9 | 7.0 | 0.00 | 0.00 | 0.00 | 38 | 1011.2 |
| 20260504201914 | 78 | 167 | 0.9 | 7.8 | 0.00 | 0.00 | 0.00 | 38 | 1011.2 |
| 20260504201412 | 77 | 167 | 1.7 | 7.8 | 0.00 | 0.00 | 0.00 | 37 | 1011.2 |
| 20260504200909 | 77 | 208 | 1.7 | 7.8 | 0.00 | 0.00 | 0.00 | 37 | 1011.2 |
| 20260504200405 | 77 | 172 | 0.9 | 7.8 | 0.00 | 0.00 | 0.00 | 38 | 1011.5 |
| 20260504195902 | 77 | 150 | 1.7 | 7.8 | 0.00 | 0.00 | 0.00 | 39 | 1011.5 |
| 20260504195357 | 77 | 277 | 1.7 | 6.1 | 0.00 | 0.00 | 0.00 | 37 | 1011.5 |
| 20260504194854 | 77 | 156 | 1.7 | 6.1 | 0.00 | 0.00 | 0.00 | 38 | 1011.5 |
| 20260504194350 | 77 | 160 | 1.7 | 6.1 | 0.00 | 0.00 | 0.00 | 37 | 1011.5 |
| 20260504193846 | 78 | 176 | 0.9 | 6.1 | 0.00 | 0.00 | 0.00 | 38 | 1011.9 |
| 20260504193344 | 77 | 284 | 0.9 | 4.3 | 0.00 | 0.00 | 0.00 | 37 | 1011.9 |
| 20260504192843 | 77 | 180 | 0.9 | 4.3 | 0.00 | 0.00 | 0.00 | 38 | 1011.9 |
| 20260504192340 | 77 | 180 | 0.9 | 4.3 | 0.00 | 0.00 | 0.00 | 38 | 1011.9 |
| 20260504191838 | 76 | 185 | 0.9 | 4.3 | 0.00 | 0.00 | 0.00 | 38 | 1011.9 |
| 20260504191336 | 76 | 178 | 0.9 | 3.5 | 0.00 | 0.00 | 0.00 | 39 | 1012.2 |
| 20260504190831 | 76 | 74 | 0.9 | 5.2 | 0.00 | 0.00 | 0.00 | 39 | 1012.2 |
| 20260504190327 | 75 | 143 | 0.9 | 5.2 | 0.00 | 0.00 | 0.00 | 39 | 1012.2 |
| 20260504185824 | 76 | 211 | 0.9 | 5.2 | 0.00 | 0.00 | 0.00 | 38 | 1012.6 |
| 20260504185321 | 76 | 168 | 1.7 | 9.6 | 0.00 | 0.00 | 0.00 | 40 | 1012.6 |
| 20260504184817 | 76 | 248 | 1.7 | 9.6 | 0.00 | 0.00 | 0.00 | 38 | 1012.6 |
| 20260504184313 | 76 | 234 | 1.7 | 9.6 | 0.00 | 0.00 | 0.00 | 39 | 1012.6 |
| 20260504183809 | 76 | 256 | 1.7 | 9.6 | 0.00 | 0.00 | 0.00 | 38 | 1012.9 |
| 20260504183306 | 76 | 188 | 0.9 | 3.5 | 0.00 | 0.00 | 0.00 | 38 | 1012.9 |
| 20260504182804 | 76 | 99 | 0.9 | 3.5 | 0.00 | 0.00 | 0.00 | 37 | 1012.9 |
| 20260504182301 | 76 | 188 | 1.7 | 7.8 | 0.00 | 0.00 | 0.00 | 36 | 1012.9 |
| 20260504181758 | 76 | 351 | 1.7 | 7.8 | 0.00 | 0.00 | 0.00 | 38 | 1013.2 |
| 20260504181255 | 76 | 226 | 0.9 | 2.6 | 0.00 | 0.00 | 0.00 | 37 | 1012.9 |
| 20260504180755 | 75 | 162 | 0.9 | 1.7 | 0.00 | 0.00 | 0.00 | 39 | 1013.2 |
| 20260504180253 | 75 | 182 | 0.9 | 6.1 | 0.00 | 0.00 | 0.00 | 38 | 1013.2 |
| 20260504175750 | 75 | 204 | 0.9 | 6.1 | 0.00 | 0.00 | 0.00 | 37 | 1013.2 |
| 20260504175247 | 75 | 202 | 0.9 | 3.5 | 0.00 | 0.00 | 0.00 | 38 | 1013.2 |
| 20260504174745 | 75 | 235 | 0.9 | 5.2 | 0.00 | 0.00 | 0.00 | 37 | 1013.2 |
| 20260504174243 | 75 | 145 | 0.9 | 5.2 | 0.00 | 0.00 | 0.00 | 38 | 1013.2 |
| 20260504173739 | 75 | 342 | 0.9 | 4.3 | 0.00 | 0.00 | 0.00 | 38 | 1013.6 |
| 20260504173236 | 74 | 107 | 0.9 | 6.1 | 0.00 | 0.00 | 0.00 | 38 | 1013.6 |
| 20260504172733 | 74 | 186 | 1.7 | 6.1 | 0.00 | 0.00 | 0.00 | 38 | 1013.6 |
| 20260504172229 | 74 | 196 | 0.9 | 6.1 | 0.00 | 0.00 | 0.00 | 37 | 1013.6 |
| 20260504171725 | 74 | 203 | 0.9 | 6.1 | 0.00 | 0.00 | 0.00 | 38 | 1013.9 |
| 20260504171222 | 74 | 200 | 0.9 | 2.6 | 0.00 | 0.00 | 0.00 | 40 | 1013.9 |
| 20260504170719 | 73 | 156 | 0.9 | 6.1 | 0.00 | 0.00 | 0.00 | 38 | 1013.9 |
| 20260504170217 | 73 | 266 | 0.9 | 6.1 | 0.00 | 0.00 | 0.00 | 40 | 1013.9 |
| 20260504160135 | 71 | 294 | 0.0 | 2.6 | 0.00 | 0.00 | 0.00 | 41 | 1014.6 |